When you browse on this site, cookies collect data to enhance your experience and personalize the content and advertising you see.
Visit our Privacy Policy to learn more. By continuing to use the site, you agree to this use of cookies and data.
  • In United Kingdom
  • List of Countries
  • For 7 days
  • Water Temperature
  • Weather Map
  • Weather Widgets
  • user-avatar
    Login

    Hourly Weather Canillo

    Today, 31 May, Sunday

    Time Temperature Precipitation Wind Pressure Humidity
    00:00 +9°C° 0 mm 1 mps 617 mmHg 93%
    01:00 +8°C° 0 mm 1 mps 617 mmHg 91%
    02:00 +8°C° 0 mm 1 mps 616 mmHg 90%
    03:00 +8°C° 0 mm 1 mps 616 mmHg 89%
    04:00 +9°C° 0 mm 1 mps 616 mmHg 88%
    05:00 +9°C° 0 mm 1 mps 617 mmHg 87%
    06:00 +10°C° 0 mm 1 mps 617 mmHg 86%
    07:00 +12°C° 0 mm 1 mps 618 mmHg 76%
    08:00 +15°C° 0 mm 1 mps 619 mmHg 65%
    09:00 +18°C° 0 mm 1 mps 620 mmHg 54%
    10:00 +18°C° 0 mm 2 mps 620 mmHg 52%
    11:00 +18°C° 0 mm 2 mps 620 mmHg 49%
    12:00 +19°C° 0 mm 2 mps 620 mmHg 46%
    13:00 +18°C° 0.5 mm 2 mps 620 mmHg 54%
    14:00 +18°C° 0.5 mm 2 mps 620 mmHg 61%
    15:00 +18°C° 0.5 mm 1 mps 619 mmHg 69%
    16:00 +16°C° 0.8 mm 1 mps 619 mmHg 75%
    17:00 +15°C° 0.8 mm 1 mps 618 mmHg 81%
    18:00 +14°C° 0.8 mm 1 mps 618 mmHg 86%
    19:00 +13°C° 0.6 mm 1 mps 618 mmHg 89%
    20:00 +12°C° 0.6 mm 1 mps 618 mmHg 91%
    21:00 +11°C° 0.6 mm 1 mps 618 mmHg 94%
    22:00 +11°C° 0.1 mm 1 mps 618 mmHg 94%
    23:00 +10°C° 0.1 mm 1 mps 618 mmHg 93%

    Tomorrow, 1 June, Monday

    Time Temperature Precipitation Wind Pressure Humidity
    00:00 +10°C° 0.1 mm 1 mps 617 mmHg 93%
    01:00 +10°C° 0.2 mm 1 mps 617 mmHg 93%
    02:00 +10°C° 0.2 mm 1 mps 617 mmHg 93%
    03:00 +10°C° 0.2 mm 1 mps 617 mmHg 93%
    04:00 +11°C° 0.1 mm 1 mps 618 mmHg 90%
    05:00 +10°C° 0.1 mm 0 mps 618 mmHg 87%
    06:00 +11°C° 0.1 mm 0 mps 618 mmHg 84%
    07:00 +13°C° 0.2 mm 1 mps 619 mmHg 79%
    08:00 +15°C° 0.2 mm 1 mps 620 mmHg 74%
    09:00 +16°C° 0.2 mm 2 mps 620 mmHg 69%
    10:00 +15°C° 1.2 mm 1 mps 620 mmHg 73%
    11:00 +15°C° 1.2 mm 1 mps 620 mmHg 77%
    12:00 +15°C° 1.2 mm 1 mps 620 mmHg 81%
    13:00 +15°C° 1.6 mm 1 mps 619 mmHg 82%
    14:00 +14°C° 1.6 mm 1 mps 619 mmHg 83%
    15:00 +14°C° 1.6 mm 1 mps 619 mmHg 85%
    16:00 +13°C° 0.8 mm 1 mps 619 mmHg 87%
    17:00 +13°C° 0.8 mm 1 mps 618 mmHg 89%
    18:00 +12°C° 0.8 mm 1 mps 618 mmHg 91%
    19:00 +12°C° 0.3 mm 1 mps 618 mmHg 92%
    20:00 +11°C° 0.3 mm 1 mps 618 mmHg 93%
    21:00 +10°C° 0.3 mm 1 mps 619 mmHg 95%
    22:00 +10°C° 0.1 mm 1 mps 618 mmHg 94%
    23:00 +10°C° 0.1 mm 1 mps 618 mmHg 94%

    Day after tomorrow, 2 June, Tuesday

    Time Temperature Precipitation Wind Pressure Humidity
    00:00 +10°C° 0.1 mm 1 mps 618 mmHg 93%
    01:00 +10°C° 0.1 mm 1 mps 618 mmHg 92%
    02:00 +10°C° 0.1 mm 1 mps 618 mmHg 91%
    03:00 +10°C° 0.1 mm 1 mps 618 mmHg 90%
    04:00 +11°C° 0.1 mm 1 mps 618 mmHg 88%
    05:00 +12°C° 0.1 mm 1 mps 618 mmHg 86%
    06:00 +12°C° 0.1 mm 1 mps 618 mmHg 84%
    07:00 +13°C° 0.3 mm 1 mps 619 mmHg 81%
    08:00 +14°C° 0.3 mm 1 mps 619 mmHg 79%
    09:00 +15°C° 0.3 mm 1 mps 619 mmHg 76%
    10:00 +15°C° 0.8 mm 1 mps 619 mmHg 75%
    11:00 +16°C° 0.8 mm 2 mps 619 mmHg 74%
    12:00 +16°C° 0.8 mm 2 mps 619 mmHg 73%
    13:00 +15°C° 1.1 mm 2 mps 618 mmHg 76%
    14:00 +15°C° 1.1 mm 1 mps 618 mmHg 79%
    15:00 +14°C° 1.1 mm 1 mps 617 mmHg 82%
    16:00 +14°C° 0.7 mm 1 mps 617 mmHg 84%
    17:00 +13°C° 0.7 mm 1 mps 617 mmHg 86%
    18:00 +13°C° 0.7 mm 1 mps 616 mmHg 88%
    19:00 +12°C° 0.2 mm 1 mps 616 mmHg 88%
    20:00 +11°C° 0.2 mm 1 mps 616 mmHg 88%
    21:00 +10°C° 0.2 mm 1 mps 616 mmHg 88%
    22:00 +10°C° 0.1 mm 1 mps 615 mmHg 87%
    23:00 +10°C° 0.1 mm 1 mps 615 mmHg 85%

    3 June, Wednesday

    Time Temperature Precipitation Wind Pressure Humidity
    00:00 +9°C° 0.1 mm 1 mps 615 mmHg 84%
    01:00 +9°C° 0 mm 1 mps 614 mmHg 85%
    02:00 +9°C° 0 mm 1 mps 614 mmHg 86%
    03:00 +9°C° 0 mm 1 mps 614 mmHg 87%
    04:00 +10°C° 0 mm 1 mps 614 mmHg 86%
    05:00 +11°C° 0 mm 1 mps 614 mmHg 85%
    06:00 +12°C° 0 mm 1 mps 615 mmHg 84%
    07:00 +13°C° 0.5 mm 1 mps 615 mmHg 82%
    08:00 +14°C° 0.5 mm 1 mps 615 mmHg 80%
    09:00 +15°C° 0.5 mm 1 mps 616 mmHg 77%
    10:00 +16°C° 1.1 mm 1 mps 616 mmHg 76%
    11:00 +16°C° 1.1 mm 2 mps 616 mmHg 75%
    12:00 +17°C° 1.1 mm 2 mps 616 mmHg 74%
    13:00 +17°C° 0.9 mm 2 mps 615 mmHg 74%
    14:00 +16°C° 0.9 mm 2 mps 615 mmHg 73%
    15:00 +16°C° 0.9 mm 2 mps 614 mmHg 72%
    16:00 +16°C° 0.5 mm 2 mps 614 mmHg 76%
    17:00 +15°C° 0.5 mm 1 mps 614 mmHg 80%
    18:00 +15°C° 0.5 mm 1 mps 614 mmHg 83%
    19:00 +13°C° 0.3 mm 1 mps 614 mmHg 86%
    20:00 +12°C° 0.3 mm 1 mps 613 mmHg 89%
    21:00 +11°C° 0.3 mm 1 mps 613 mmHg 92%
    22:00 +11°C° 0.3 mm 1 mps 613 mmHg 92%
    23:00 +11°C° 0.3 mm 1 mps 613 mmHg 92%

    4 June, Thursday

    Time Temperature Precipitation Wind Pressure Humidity
    00:00 +11°C° 0.3 mm 1 mps 613 mmHg 92%
    01:00 +10°C° 0.1 mm 1 mps 613 mmHg 91%
    02:00 +10°C° 0.1 mm 1 mps 613 mmHg 90%
    03:00 +9°C° 0.1 mm 1 mps 612 mmHg 90%
    04:00 +9°C° 0 mm 2 mps 613 mmHg 88%
    05:00 +10°C° 0 mm 2 mps 613 mmHg 87%
    06:00 +12°C° 0 mm 2 mps 614 mmHg 86%
    07:00 +14°C° 0 mm 2 mps 614 mmHg 76%
    08:00 +15°C° 0 mm 2 mps 615 mmHg 66%
    09:00 +17°C° 0 mm 3 mps 616 mmHg 56%
    10:00 +18°C° 0 mm 3 mps 616 mmHg 53%
    11:00 +19°C° 0 mm 4 mps 617 mmHg 49%
    12:00 +20°C° 0 mm 4 mps 617 mmHg 45%
    13:00 +20°C° 0 mm 4 mps 617 mmHg 46%
    14:00 +20°C° 0 mm 4 mps 616 mmHg 46%
    15:00 +20°C° 0 mm 4 mps 616 mmHg 46%
    16:00 +19°C° 0.1 mm 3 mps 616 mmHg 55%
    17:00 +18°C° 0.1 mm 3 mps 615 mmHg 63%
    18:00 +16°C° 0.1 mm 2 mps 614 mmHg 72%
    19:00 +15°C° 0.1 mm 2 mps 614 mmHg 77%
    20:00 +13°C° 0.1 mm 2 mps 614 mmHg 81%
    21:00 +12°C° 0.1 mm 2 mps 613 mmHg 86%
    22:00 +10°C° 0 mm 2 mps 613 mmHg 84%
    23:00 +10°C° 0 mm 2 mps 613 mmHg 82%

    5 June, Friday

    Time Temperature Precipitation Wind Pressure Humidity
    00:00 +10°C° 0 mm 2 mps 613 mmHg 80%
    01:00 +10°C° 0 mm 2 mps 613 mmHg 79%
    02:00 +9°C° 0 mm 2 mps 613 mmHg 78%
    03:00 +9°C° 0 mm 2 mps 612 mmHg 76%
    04:00 +10°C° 0 mm 2 mps 613 mmHg 76%
    05:00 +12°C° 0 mm 2 mps 613 mmHg 75%
    06:00 +13°C° 0 mm 2 mps 614 mmHg 74%
    07:00 +14°C° 0 mm 2 mps 615 mmHg 65%
    08:00 +16°C° 0 mm 3 mps 615 mmHg 56%
    09:00 +18°C° 0 mm 3 mps 616 mmHg 46%
    10:00 +18°C° 0 mm 4 mps 617 mmHg 45%
    11:00 +19°C° 0 mm 4 mps 617 mmHg 44%
    12:00 +20°C° 0 mm 5 mps 617 mmHg 42%
    13:00 +20°C° 0 mm 4 mps 617 mmHg 43%
    14:00 +19°C° 0 mm 4 mps 616 mmHg 44%
    15:00 +19°C° 0 mm 4 mps 616 mmHg 44%
    16:00 +18°C° 0 mm 4 mps 616 mmHg 50%
    17:00 +17°C° 0 mm 3 mps 616 mmHg 57%
    18:00 +16°C° 0 mm 3 mps 615 mmHg 63%
    19:00 +14°C° 0 mm 2 mps 615 mmHg 66%
    20:00 +13°C° 0 mm 2 mps 615 mmHg 70%
    21:00 +10°C° 0 mm 2 mps 614 mmHg 74%
    22:00 +10°C° 0 mm 2 mps 614 mmHg 75%
    23:00 +9°C° 0 mm 2 mps 614 mmHg 77%
    Show more